Location: Poughquag
(41.6090°N, 73.6820°W)
Time: 01:31:00
(UTC-04:00)

Vanguard 1 Rocket - Pass Details

Date: 02 June 2020
Orbit: 653 x 4224 km, 34.3° (Epoch: 06 July)

Event Time Altitude Azimuth Distance (km) Brightness Sun altitude
Rises 05:30:52 0° 276° (W) 6,153 11.1 0.5°
Reaches altitude 10° 05:36:03 10° 270° (W) 4,514 10.4 1.4°
Maximum altitude 05:45:35 35° 210° (SSW) 1,957 8.7 3.0°
Drops below altitude 10° 05:51:13 10° 145° (SE) 2,631 9.9 3.9°
Sets 05:53:27 0° 136° (SE) 3,347 10.6 4.3°
